Dewpoint
71 71 71 71 71 72 72 71 71 71 72 73 73 72 72 72 72 72 72 73 74 75 76 75 74 74 74 74 74 73 72 72 72 72 72 72 71 71 71 71 70 69 69
69 69 70 70 70 71 71 71 71 71 71 71 71 72 72 71 72 72 71 72 74 75 75 75 75 74 73 73 74 73 73 73 73 73 73 73 73 72 71 71 71 71 70
68 69 70 69 70 70 70 71 71 71 70 71 71 71 71 71 71 72 72 71 71 75 76 76 75 75 75 74 73 74 74 73 73 74 73 73 73 73 73 72 71 71 71
70 70 69 69 69 70 70 70 69 70 70 70 70 71 71 71 71 72 71 71 72 71 75 75 76 75 75 75 74 74 75 74 73 73 73 73 73 73 73 73 72 72 72
70 69 70 69 69 70 69 70 69 69 68 69 70 70 70 71 72 72 71 72 72 71 71 75 75 75 75 74 74 74 74 74 73 72 73 73 73 73 72 73 73 72 72
70 69 68 69 69 68 68 69 68 68 68 68 70 70 70 70 70 70 71 71 72 72 72 72 74 75 75 75 73 75 73 71 74 73 72 72 72 73 72 72 72 73 72
71 70 69 68 68 68 68 69 67 66 66 68 66 66 68 69 70 70 70 71 71 71 72 72 72 73 73 75 73 73 74 73 72 73 73 73 72 72 72 73 72 72 72
69 68 68 67 68 68 67 68 67 67 66 68 64 63 62 63 67 69 70 70 70 71 71 71 71 72 72 72 72 73 72 73 73 73 73 73 72 72 71 71 71 71 72
68 68 68 67 67 68 68 68 68 66 65 67 66 63 60 59 63 67 69 69 70 69 70 71 71 71 71 71 72 72 72 73 73 74 74 73 72 71 71 71 71 71 71
67 68 67 68 68 68 67 68 68 67 66 65 66 68 65 64 61 59 65 68 69 69 69 70 71 71 71 71 71 71 71 72 72 74 74 74 73 72 71 71 71 70 70
66 67 68 67 68 68 67 68 67 66 66 65 64 64 64 65 64 62 61 63 67 69 69 70 70 70 71 71 71 71 72 71 71 72 73 73 73 72 71 71 71 71 70
65 67 68 67 68 68 68 68 68 66 66 65 64 64 64 63 63 63 62 63 63 64 68 69 69 70 70 71 71 72 72 71 71 71 71 71 71 71 71 70 71 71 71
65 66 67 66 67 68 68 68 67 66 66 65 64 64 65 65 66 64 64 63 62 65 66 68 68 69 69 70 70 72 72 71 70 69 69 70 70 71 71 71 71 72 71
64 65 66 66 67 68 68 68 68 68 67 66 65 65 65 66 67 67 65 63 61 62 62 64 67 68 69 69 69 71 70 70 69 68 68 68 68 69 69 69 69 69 69
66 65 66 66 67 67 67 67 67 67 66 66 66 66 66 67 67 67 67 66 63 59 59 63 64 67 69 70 70 69 70 69 69 68 67 66 66 66 67 68 68 67 68
66 66 65 66 66 66 66 66 65 66 66 66 66 66 66 65 66 66 67 66 66 64 60 63 65 67 68 70 70 69 69 68 68 67 66 65 65 66 66 66 66 65 65
65 66 66 65 65 65 65 65 65 66 66 66 66 66 64 64 65 66 66 66 65 65 62 64 65 66 66 67 67 66 66 65 64 65 65 64 64 64 64 63 63 62 62
66 66 66 66 64 65 65 66 66 66 66 65 65 66 64 67 65 65 65 64 65 65 63 62 64 64 65 65 66 63 64 63 63 62 62 62 61 61 59 59 58 57 57
65 65 65 64 64 63 63 62 62 61 61 62 62 62 64 63 63 62 62 62 64 64 64 63 62 63 63 63 61 59 57 60 61 60 61 61 59 57 56 54 53 52 51
64 64 64 63 63 63 63 62 62 61 60 60 60 60 60 60 61 60 60 60 62 62 62 62 61 61 62 61 61 58 53 55 58 58 58 58 57 55 55 54 53 52 51
64 63 62 62 62 62 62 61 61 60 59 58 57 59 59 60 60 60 59 59 60 61 61 61 61 61 61 61 59 59 54 55 53 57 56 55 55 54 54 54 53 52 52
60 58 56 56 58 59 60 60 60 58 57 55 55 55 56 57 57 57 58 58 59 60 61 61 60 58 56 58 58 59 56 52 49 50 53 53 55 53 54 52 53 53 51
56 53 51 51 51 54 58 58 59 58 57 57 57 57 57 57 55 51 51 50 52 55 58 60 55 53 52 53 55 54 53 54 52 52 48 45 48 52 52 52 54 52 51
53 50 48 48 49 51 55 53 53 50 49 49 50 50 53 54 52 42 43 44 44 44 43 47 51 50 48 49 52 51 51 51 48 46 48 44 45 42 48 50 54 53 52
48 48 47 47 48 50 51 49 47 46 45 44 47 50 51 49 50 49 46 46 46 47 50 51 51 51 50 50 48 43 42 42 42 46 45 43 44 43 43 41 48 54 52
47 47 47 47 48 47 48 47 44 44 43 43 43 45 49 47 48 48 48 48 47 48 47 47 47 46 46 48 49 46 45 44 44 43 45 45 46 45 43 48 46 44 48
Lifted_Index
-5 -5 -5 -5 -5 -5 -4 -4 -4 -4 -4 -4 -4 -4 -3 -3 -3 -3 -3 -3 -4 -4 -5 -5 -5 -4 -4 -4 -4 -4 -3 -3 -3 -3 -2 -2 -2 -2 -2 -1 -1 -0 -0
-4 -4 -4 -4 -4 -4 -4 -4 -4 -4 -4 -4 -4 -4 -3 -3 -3 -3 -3 -3 -3 -4 -5 -5 -5 -4 -4 -4 -4 -4 -4 -3 -3 -3 -2 -2 -2 -2 -2 -2 -1 -1 -0
-3 -3 -3 -4 -4 -3 -3 -3 -3 -3 -3 -4 -4 -4 -3 -3 -3 -3 -3 -3 -3 -4 -5 -5 -5 -5 -5 -4 -4 -4 -4 -4 -4 -3 -3 -2 -2 -2 -2 -2 -2 -1 -1
-3 -3 -3 -3 -3 -3 -3 -2 -2 -3 -3 -3 -3 -3 -3 -3 -3 -3 -3 -3 -3 -3 -4 -5 -5 -6 -5 -5 -4 -5 -5 -4 -4 -3 -3 -2 -2 -3 -3 -3 -2 -2 -2
-3 -3 -3 -3 -3 -3 -2 -2 -2 -2 -3 -3 -3 -3 -3 -3 -3 -3 -3 -3 -3 -2 -3 -4 -5 -6 -5 -5 -5 -5 -4 -4 -3 -3 -3 -2 -2 -3 -3 -3 -3 -3 -3
-3 -3 -2 -2 -3 -2 -2 -2 -2 -2 -2 -2 -3 -3 -3 -3 -3 -3 -3 -3 -2 -2 -2 -3 -4 -5 -5 -5 -4 -4 -4 -3 -3 -3 -3 -2 -2 -2 -3 -3 -3 -3 -3
-2 -2 -2 -2 -2 -2 -2 -2 -2 -2 -2 -2 -2 -2 -2 -3 -3 -3 -3 -3 -2 -2 -2 -3 -3 -4 -4 -4 -4 -4 -3 -3 -3 -3 -3 -3 -2 -2 -2 -2 -2 -3 -3
-2 -1 -1 -1 -1 -2 -2 -2 -2 -2 -2 -2 -2 -1 -1 -2 -2 -2 -3 -3 -2 -2 -2 -2 -3 -3 -3 -3 -3 -3 -3 -3 -3 -3 -3 -3 -2 -2 -2 -2 -2 -2 -2
-1 -1 -0 -0 -1 -1 -2 -2 -2 -2 -2 -2 -2 -1 -1 -1 -1 -2 -2 -3 -3 -2 -2 -2 -2 -2 -2 -2 -2 -2 -2 -3 -3 -4 -4 -3 -3 -2 -2 -2 -2 -2 -2
0 0 -0 -0 -1 -1 -1 -2 -2 -2 -2 -2 -2 -1 -1 -1 -1 -1 -1 -2 -2 -3 -2 -2 -2 -2 -2 -2 -2 -2 -2 -2 -3 -4 -4 -4 -3 -2 -2 -2 -2 -1 -1
0 0 0 -0 -1 -1 -1 -2 -2 -2 -1 -1 -1 -1 -1 -1 -1 -0 -0 -0 -1 -2 -2 -2 -2 -2 -2 -2 -2 -2 -2 -2 -3 -3 -3 -3 -3 -2 -2 -2 -2 -2 -2
-0 -0 -0 -1 -1 -1 -1 -2 -2 -2 -2 -1 -1 -1 -0 -1 -1 -0 -0 0 -0 -1 -2 -2 -2 -2 -2 -2 -2 -2 -2 -3 -3 -2 -2 -2 -2 -2 -2 -2 -2 -2 -2
-0 -0 -1 -1 -1 -1 -1 -1 -2 -2 -1 -1 -1 -0 0 -0 -0 -0 -0 0 -0 -1 -1 -2 -2 -2 -2 -2 -2 -2 -3 -3 -2 -2 -2 -2 -2 -2 -2 -2 -2 -3 -3
-1 -1 -1 -1 -1 -1 -1 -1 -1 -1 -1 -1 -1 -0 0 0 -0 -0 -0 -0 -0 -0 -1 -1 -1 -2 -2 -2 -2 -2 -2 -2 -2 -2 -1 -1 -1 -2 -2 -2 -2 -2 -2
-1 -1 -1 -1 -1 -1 -1 -1 -1 -1 -1 -1 -1 -0 -0 -0 -0 -0 -0 0 0 -0 -0 -1 -1 -1 -1 -2 -2 -2 -2 -1 -1 -1 -1 -1 -1 -1 -1 -2 -2 -2 -2
-1 -1 -1 -1 -1 -1 -1 -1 -1 -1 -1 -1 -1 -1 -1 -0 -0 -0 0 0 0 0 -0 -0 -1 -1 -1 -1 -1 -1 -1 -0 -0 -0 -1 -1 -1 -1 -1 -2 -2 -1 -1
-0 -1 -1 -1 -1 -1 -1 -1 -1 -1 -1 -0 -0 -0 -0 -0 -0 0 1 1 1 0 0 -0 -0 -0 -0 -1 -1 -0 0 0 0 -0 -0 -0 -1 -1 -1 -1 -1 -0 0
0 -0 -0 -0 -1 -1 -1 -1 -1 -1 -0 -0 -0 -0 0 0 0 1 1 1 1 0 0 0 0 -0 -0 -0 0 1 1 1 1 1 0 -0 -0 -1 -0 -0 0 0 1
0 0 0 0 -0 -0 -0 -0 -0 0 0 0 0 0 1 1 1 1 1 1 1 1 1 1 1 1 1 1 1 2 1 1 1 1 1 0 0 0 1 1 1 1 1
1 1 1 1 1 1 1 1 1 1 1 1 1 1 1 1 2 1 1 2 2 2 2 2 2 1 1 1 1 2 2 1 1 1 1 1 1 2 2 2 2 3 3
1 2 2 2 2 2 2 2 2 2 2 2 1 1 2 2 2 2 2 2 2 3 3 2 2 2 2 2 2 2 2 2 2 2 2 2 3 3 4 4 4 5 5
2 2 2 2 2 2 2 3 3 3 2 2 2 2 2 2 2 2 2 2 3 3 3 2 2 2 2 2 2 2 2 2 2 3 3 3 3 4 5 6 6 6 6
2 2 2 2 2 2 3 3 3 3 3 3 3 3 3 3 3 3 3 3 3 3 3 2 2 2 2 2 2 2 2 2 2 3 3 3 3 4 5 6 7 7 8
3 3 3 3 3 3 3 4 4 4 4 4 3 4 4 4 4 4 5 5 5 5 5 4 3 3 3 3 3 3 3 3 3 4 4 4 5 5 6 7 8 9 10
4 4 4 4 4 4 4 4 4 5 5 4 4 5 5 5 6 6 7 6 6 7 8 7 6 6 6 6 6 6 5 5 5 5 6 7 7 7 7 9 10 10 10
4 4 5 4 4 4 4 5 5 5 5 5 5 5 6 6 6 7 7 7 7 8 9 10 9 9 9 9 8 8 7 7 6 6 7 8 8 8 8 9 10 11 11